Regional Weather Roundup
Issued by NWS

Home | Current Version | Previous Version | Text Only | Print | Product List | Glossary On
Versions: 1 2 3 4 5 6 7 8 9 10 11 12 13 14 15 16 17 18 19 20 21 22 23 24 25 26 27 28 29 30 31 32 33 34 35 36 37 38 39 40 41 42 43 44 45 46 47 48 49 50
000
ASUS43 KMKX 032100
RWRWI

WISCONSIN REGIONAL WEATHER ROUNDUP
NATIONAL WEATHER SERVICE MILWAUKEE/SULLIVAN WI
400 PM CDT SUN MAY 03 2015

NOTE: "FAIR" INDICATES FEW OR NO CLOUDS BELOW 12,000 FEET WITH NO
SIGNIFICANT WEATHER AND/OR OBSTRUCTIONS TO VISIBILITY.

WIZ001-002-006>008-014>016-023>028-032200-
NORTHWEST WISCONSIN

CITY           SKY/WX    TMP DP  RH WIND       PRES   REMARKS
SUPERIOR ARPT  CLOUDY    77  41  27 NW14G23   29.77R
ASHLAND        CLOUDY    73  47  39 N9        29.76S
HAYWARD        PTSUNNY   78  47  33 SW9       29.77F
SIREN          MOSUNNY   78  50  37 NW7       29.78F
CUMBERLAND     PTSUNNY   75  45  33 N5        29.78F
RICE LAKE      SUNNY     79  48  33 CALM      29.79F
CHETEK         MOSUNNY   78  55  44 N3        29.77F
LADYSMITH      MOSUNNY   79  51  37 S6        29.79F
EAU CLAIRE     NOT AVBL
MENOMONIE      SUNNY     79  54  41 SE6       29.78F
NEW RICHMOND   SUNNY     80  49  33 SW6       29.77F
OSCEOLA        MOSUNNY   79  53  40 NW6       29.79F
$$

WIZ003>005-009-010-017-018-032200-
NORTH CENTRAL WISCONSIN

CITY           SKY/WX    TMP DP  RH WIND       PRES   REMARKS
MANITOWISH WTR PTSUNNY   77  49  36 W12       29.77F
ARBOR VITAE    PTSUNNY   77  49  37 W6        29.78F
WOODRUFF       PTSUNNY   77  49  37 W6        29.78F
RHINELANDER    MOSUNNY   78  50  37 SW14G21   29.79F
EAGLE RIVER    PTSUNNY   78  45  31 SW9G18    29.78F
LAND O LAKES   PTSUNNY   80  43  27 SW7G17    29.77F
PHILLIPS       MOSUNNY   76  53  45 SW7       29.78F
TOMAHAWK       MOSUNNY   77  50  38 CALM      29.80S
MEDFORD        MOSUNNY   76  53  45 SW10      29.81F
MERRILL        MOSUNNY   77  52  42 W10       29.80S
$$

WIZ029-030-035-036-043>047-032200-
CENTRAL WISCONSIN

CITY           SKY/WX    TMP DP  RH WIND       PRES   REMARKS
WAUSAU         MOSUNNY   78  51  38 SW10G21   29.78F
MOSINEE        MOSUNNY   77  52  41 SW10G20   29.82S
MARSHFIELD     MOSUNNY   80  52  37 SW9       29.80F HX  80
STEVENS POINT  MOSUNNY   77  51  40 SW14G21   29.81S
WAUPACA        PTSUNNY   82  51  34 S12G17    29.81F HX  80
WAUTOMA        NOT AVBL
WISC RAPIDS    MOSUNNY   80  49  33 SW13G18   29.81F
CAMP DOUGLAS   NOT AVBL
$$

WIZ011>013-019>022-031-037>040-048>050-032200-
NORTHEAST WISCONSIN

CITY           SKY/WX    TMP DP  RH WIND       PRES   REMARKS
ANTIGO         MOSUNNY   77  52  41 SW12G23   29.81S
SHAWANO        MOSUNNY   81  49  32 SW8G20    29.80S HX  80
OCONTO         MOSUNNY   80  53  40 S10G21    29.79F HX  80
STURGEON BAY   MOSUNNY   66  46  48 S16       29.84F
GREEN BAY      MOSUNNY   77  54  44 S20G26    29.82F
MANITOWOC      NOT AVBL
APPLETON       PTSUNNY   77  52  41 SW21G28   29.83F
CLINTONVILLE   PTSUNNY   79  50  36 SW17G25   29.80S
OSHKOSH        CLOUDY    76  55  48 S20G26    29.83S
$$

WIZ032>034-041-042-053>061-032200-
SOUTHWEST WISCONSIN

CITY           SKY/WX    TMP DP  RH WIND       PRES   REMARKS
LA CROSSE      SUNNY     84  46  26 S10       29.77F HX  82
SPARTA         PTSUNNY   79  49  34 SW5       29.81F
VIROQUA        MOSUNNY   79  51  37 S12       29.83F
BOSCOBEL       SUNNY     79  56  45 S9        29.84S HX  80
PRAIRIE DU CHI SUNNY     79  53  39 SE10G17   29.81F
PLATTEVILLE    MOSUNNY   72  57  59 S15       29.88F
$$

WIZ056-057-062-063-064-067-068-032200-
SOUTH CENTRAL WISCONSIN

CITY           SKY/WX    TMP DP  RH WIND       PRES   REMARKS
REEDSBURG      MOSUNNY   76  55  47 S13G22    29.84F
BARABOO/DELLS  NOT AVBL
LONE ROCK      NOT AVBL
MINERAL POINT  MOSUNNY   72  55  56 S14       29.88S
MADISON        PTSUNNY   74  55  51 S16       29.88S
MIDDLETON      PTSUNNY   76  53  44 SW23      29.89R
WATERTOWN      PTSUNNY   73  55  52 S18       29.89S
MONROE         RAIN      61  59  94 S14       29.90F
JANESVILLE     LGT RAIN  64  57  77 S13       29.91S
$$

WIZ051-052-058>065-066-070>072-032200-
SOUTHEAST WISCONSIN

CITY           SKY/WX    TMP DP  RH WIND       PRES   REMARKS
MILWAUKEE      CLOUDY    74  50  42 SW20      29.90S
WAUKESHA       NOT AVBL
MILWAUKEE/TIMM SUNNY     73  48  40 SW14G28   29.91R
RACINE         CLOUDY    74  50  42 SW14G24   29.92S
BURLINGTON     LGT RAIN  66  54  63 SW8       29.92S
KENOSHA        CLOUDY    73  53  49 SW6       29.91F
FOND DU LAC    CLOUDY    77  53  43 SW21G30   29.85S
SHEBOYGAN      PTSUNNY   74  52  46 S9        29.86S
WEST BEND      PTSUNNY   77  52  41 SW20G26   29.88S
JUNEAU         PTSUNNY   74  55  50 SW18G26   29.89F
$$

LSZ147-162-032200-
LAKE SUPERIOR

STATION/POSITION TIME  TEMP    WIND        PRES    WAVE
                       AIR SEA DIR/SP/G            HT/PER
                 (UTC) (F)     (DEG/KT/KT) (MB)    (FT/S)
W MID LAKE BUOY  1950   44 36  230/  8/  8 1008.0R   1
DEVILS ISLAND    2000   65     230/ 13/ 15 1007.5R
PORT WING        2040   73     270/  7/  9 1007.5F
SAXON HARBOR     2040   61        CALM     1007.5S
$$

LMZ867-665-643>646-032200-
LAKE MICHIGAN

STATION/POSITION TIME  TEMP    WIND        PRES    WAVE
                       AIR SEA DIR/SP/G            HT/PER
                 (UTC) (F)     (DEG/KT/KT) (MB)    (FT/S)
CHAMBERS ISLAND  2000   72     160/  8/ 16 1009.8F
NORTHPORT PIER   2000   63     160/  8/ 16 1010.5F
KEWAUNEE LAKESHO 2000   48     180/ 16/ 19 1010.5F
SHEBOYGAN LAKESH 2000   48     170/ 20/ 22 1012.0F
PORT WASHINGTON  2000   52     160/  4/  7 1012.9
ATWATER BUOY     2000          210/ 19/ 21 1013.5F
MILWAUKEE LAKESH 2000   73     210/ 20/ 25   N/A
KENOSHA   LAKESH 2000   76     210/ 12/ 18 1012.9R
$$

TC  - TEMPERATURE IN CELSIUS
VSB - VISIBILITY IN STATUTE MILES
WCI - WIND CHILL INDEX
HX  - HEAT INDEX



USA.gov is the U.S. government's official web portal to all federal, state and local government web resources and services.